Regional Weather Roundup
Issued by NWS

Home | Current Version | Previous Version | Graphics & Text | Print | Product List | Glossary Off
Versions: 1 2 3 4 5 6 7 8 9 10 11 12 13 14 15 16 17 18 19 20 21 22 23 24 25 26 27 28 29 30 31 32 33 34 35 36 37 38 39 40 41 42 43 44 45 46 47 48 49 50

000
ASUS43 KMKX 171811
RWRWI

WISCONSIN REGIONAL WEATHER ROUNDUP
NATIONAL WEATHER SERVICE MILWAUKEE/SULLIVAN WI
100 PM CDT THU APR 17 2014

NOTE: "FAIR" INDICATES FEW OR NO CLOUDS BELOW 12,000 FEET WITH NO
SIGNIFICANT WEATHER AND/OR OBSTRUCTIONS TO VISIBILITY.

WIZ001-002-006>008-014>016-023>028-171900-
NORTHWEST WISCONSIN

CITY           SKY/WX    TMP DP  RH WIND       PRES   REMARKS
SUPERIOR ARPT  CLOUDY    36  25  65 NW10      30.24S WCI  28
6HR MIN TEMP:  29; 6HR MAX TEMP:  36;

ASHLAND        CLOUDY    34  30  85 W8        30.20R WCI  27
6HR MIN TEMP:  28; 6HR MAX TEMP:  34; 6HR PCP: TRACE;

HAYWARD        CLOUDY    32  28  85 VRB3      30.21S
6HR MIN TEMP:  29; 6HR MAX TEMP:  32;

SIREN          CLOUDY    34  27  76 NW8       30.25S WCI  27
6HR MIN TEMP:  29; 6HR MAX TEMP:  34; 6HR PCP:  0.06;

RICE LAKE      CLOUDY    32  30  90 NW9       30.23S WCI  25
6HR MIN TEMP:  31; 6HR MAX TEMP:  33;

LADYSMITH      CLOUDY    35  32  90 NW10      30.19S WCI  27
6HR MIN TEMP:  34; 6HR MAX TEMP:  35;

EAU CLAIRE     CLOUDY    37  32  82 NW13      30.21R WCI  29
6HR MIN TEMP:  35; 6HR MAX TEMP:  37;

MENOMONIE      CLOUDY    35  31  87 NW13      30.23S WCI  26
6HR MIN TEMP:  33; 6HR MAX TEMP:  35;

NEW RICHMOND   CLOUDY    34  32  92 NW10      30.25S WCI  26
6HR MIN TEMP:  30; 6HR MAX TEMP:  34; 6HR PCP:  0.03;

OSCEOLA        CLOUDY    36  28  72 NW9       30.28S WCI  29
6HR MIN TEMP:  30; 6HR MAX TEMP:  36; 6HR PCP:  0.16;

$$

WIZ003>005-009-010-017-018-171900-
NORTH CENTRAL WISCONSIN

CITY           SKY/WX    TMP DP  RH WIND       PRES   REMARKS
WOODRUFF       CLOUDY    39  36  87 W5        30.12S FOG
6HR MIN TEMP:  33; 6HR MAX TEMP:  39; 6HR PCP:  0.03;

RHINELANDER    CLOUDY    35  32  88 W7        30.12R FOG     WCI  29
6HR MIN TEMP:  31; 6HR MAX TEMP:  35; 6HR PCP:  0.10;

EAGLE RIVER    CLOUDY    34  32  93 SW6       30.11S FOG     WCI  29
6HR MIN TEMP:  31; 6HR MAX TEMP:  34; 6HR PCP:  0.24;

LAND O LAKES   CLOUDY    35  32  90 SW3       30.12S FOG
6HR MIN TEMP:  31; 6HR MAX TEMP:  35; 6HR PCP:  0.02;

PHILLIPS       CLOUDY    34  32  92 W6        30.14R FOG     WCI  29
6HR MIN TEMP:  32; 6HR MAX TEMP:  35; 6HR PCP:  0.01;

TOMAHAWK       CLOUDY    35  32  88 CALM      30.13R FOG
6HR MIN TEMP:  32; 6HR MAX TEMP:  35; 6HR PCP:  0.17;

MEDFORD        CLOUDY    35  33  93 W10       30.14R FOG     WCI  27
6HR MIN TEMP:  32; 6HR MAX TEMP:  35; 6HR PCP:  0.02;

MERRILL        CLOUDY    38  34  87 CALM      30.13R
6HR MIN TEMP:  32; 6HR MAX TEMP:  38; 6HR PCP:  0.02;

$$

WIZ029-030-035-036-043>047-171900-
CENTRAL WISCONSIN

CITY           SKY/WX    TMP DP  RH WIND       PRES   REMARKS
WAUSAU         CLOUDY    41  34  76 W14       30.11R
6HR MIN TEMP:  33; 6HR MAX TEMP:  41; 6HR PCP:  0.06;

MOSINEE        NOT AVBL
MARSHFIELD     CLOUDY    41  35  79 W13       30.15R
6HR MIN TEMP:  34; 6HR MAX TEMP:  44; 6HR PCP: TRACE;

STEVENS POINT  CLOUDY    44  34  67 NW10      30.14R
6HR MIN TEMP:  32; 6HR MAX TEMP:  45;

WAUPACA        NOT AVBL
WAUTOMA        PTSUNNY   55  36  49 NW12G18   30.12R
6HR MIN TEMP:  42; 6HR MAX TEMP:  55;

WISC RAPIDS    CLOUDY    46  35  65 W14       30.16R
6HR MIN TEMP:  37; 6HR MAX TEMP:  51; 6HR PCP:  0.01;

CAMP DOUGLAS   CLOUDY    46  37  71 W16       30.17R
$$

WIZ011>013-019>022-031-037>040-048>050-171900-
NORTHEAST WISCONSIN

CITY           SKY/WX    TMP DP  RH WIND       PRES   REMARKS
ANTIGO         CLOUDY    39  32  75 N3        30.11S
6HR MIN TEMP:  31; 6HR MAX TEMP:  39; 6HR PCP:  0.02;

STURGEON BAY   CLOUDY    41  34  75 S13       30.14F
6HR MIN TEMP:  34; 6HR MAX TEMP:  41; 6HR PCP:  0.03;

GREEN BAY      PTSUNNY   49  38  65 S8        30.12S
6HR MIN TEMP:  37; 6HR MAX TEMP:  49; 6HR PCP: TRACE;

MANITOWOC      MOSUNNY   46  36  68 S10       30.14S
6HR MIN TEMP:  37; 6HR MAX TEMP:  46; 6HR PCP: TRACE;

APPLETON       PTSUNNY   48  34  57 SW7       30.12R
CLINTONVILLE   PTSUNNY   50  34  53 W8G16     30.12R
OSHKOSH        PTSUNNY   50  39  66 SW9       30.12R
6HR MIN TEMP:  38; 6HR MAX TEMP:  50;

$$

WIZ032>034-041-042-053>061-171900-
SOUTHWEST WISCONSIN

CITY           SKY/WX    TMP DP  RH WIND       PRES   REMARKS
LA CROSSE      CLOUDY    43  32  65 NW15      30.22R
6HR MIN TEMP:  41; 6HR MAX TEMP:  46;

SPARTA         CLOUDY    41  34  74 W9        30.21R
6HR MIN TEMP:  41; 6HR MAX TEMP:  49;

VIROQUA        MOCLDY    45  36  71 NW14      30.19R
6HR MIN TEMP:  37; 6HR MAX TEMP:  45;

BOSCOBEL       PTSUNNY   50  34  54 NW7       30.20R
6HR MIN TEMP:  38; 6HR MAX TEMP:  51;

PRAIRIE DU CHI CLOUDY    46  34  61 W10       30.22R
6HR MIN TEMP:  36; 6HR MAX TEMP:  46;

PLATTEVILLE    FAIR      49  37  63 W12       30.21R
6HR MIN TEMP:  37; 6HR MAX TEMP:  49;

$$

WIZ056-057-062-063-064-067-068-171900-
SOUTH CENTRAL WISCONSIN

CITY           SKY/WX    TMP DP  RH WIND       PRES   REMARKS
BARABOO/DELLS  CLOUDY    50  36  59 W9        30.14R
6HR MIN TEMP:  40; 6HR MAX TEMP:  51;

LONE ROCK      CLOUDY    48  37  65 SW13      30.18R
6HR MIN TEMP:  39; 6HR MAX TEMP:  49;

WATERTOWN      CLOUDY    46  37  71 SW9       30.16S
6HR MIN TEMP:  42; 6HR MAX TEMP:  47;

MADISON        PTSUNNY   50  36  58 W10G16    30.17R
6HR MIN TEMP:  42; 6HR MAX TEMP:  50;

MIDDLETON      MOCLDY    51  36  57 W12       30.17S
6HR MIN TEMP:  42; 6HR MAX TEMP:  51;

MONROE         PTSUNNY   47  35  63 SW10G18   30.18S
6HR MIN TEMP:  39; 6HR MAX TEMP:  48;

JANESVILLE     CLOUDY    50  36  57 W12       30.18S
$$

WIZ051-052-058>065-066-070>072-171900-
SOUTHEAST WISCONSIN

CITY           SKY/WX    TMP DP  RH WIND       PRES   REMARKS
MILWAUKEE      CLOUDY    51  37  58 SW14      30.18R
6HR MIN TEMP:  40; 6HR MAX TEMP:  53;

WAUKESHA       CLOUDY    46  37  71 SW14      30.17R
MILWAUKEE/TIMM CLOUDY    52  36  54 SW14G21     N/A
RACINE         MOSUNNY   54  38  54 W10G21    30.18R
6HR MIN TEMP:  39; 6HR MAX TEMP:  55;

BURLINGTON     PTSUNNY   49  37  63 W13G18    30.18R
6HR MIN TEMP:  41; 6HR MAX TEMP:  50;

KENOSHA        CLOUDY    55  40  56 W13G23    30.17R
6HR MIN TEMP:  41; 6HR MAX TEMP:  55;

FOND DU LAC    CLOUDY    48  37  65 SW10      30.14R
6HR MIN TEMP:  38; 6HR MAX TEMP:  49;

SHEBOYGAN      CLOUDY    50  39  66 SW13      30.14R
6HR MIN TEMP:  37; 6HR MAX TEMP:  50;

WEST BEND      CLOUDY    48  36  61 SW10      30.15R
JUNEAU         CLOUDY    45  36  70 SW12      30.18R
6HR MIN TEMP:  40; 6HR MAX TEMP:  45;

$$

LSZ147-162-171900-
LAKE SUPERIOR

STATION/POSITION TIME  TEMP    WIND        PRES    WAVE
                       AIR SEA DIR/SP/G            HT/PER
                 (UTC) (F)     (DEG/KT/KT) (MB)    (FT/S)
DEVILS ISLAND    1800   32      CALM  /  1 1023.3R
PORT WING        1700   31     310/ 12/ 15 1023.4R
SAXON HARBOR     1700           CALM  /  2 1021.7R
$$

LMZ867-665-643>646-171900-
LAKE MICHIGAN

STATION/POSITION TIME  TEMP    WIND        PRES    WAVE
                       AIR SEA DIR/SP/G            HT/PER
                 (UTC) (F)     (DEG/KT/KT) (MB)    (FT/S)
NORTHPORT PIER   1700   35     120/ 10/ 12 1021.3F
SISTER BAY       1723   41     120/ 12/ 15   N/A
KEWAUNEE LAKESHO 1700   38     170/ 16/ 19 1021.3R
SHEBOYGAN LAKESH 1800   45     190/ 10/ 13 1021.3S
PORT WASHINGTON  1700   40     110/  3/  4 1021.3R
MILWAUKEE LAKESH 1700   49     230/ 16/ 20   N/A
KENOSHA   LAKESH 1800   53     260/ 14/ 17   N/A
$$

TC  - TEMPERATURE IN CELSIUS
VSB - VISIBILITY IN STATUTE MILES
WCI - WIND CHILL INDEX
HX  - HEAT INDEX




USA.gov is the U.S. government's official web portal to all federal, state and local government web resources and services.